Weather History for CYHE - October, 2013

Change the Weather History Date:

Wednesday, October 9, 2013

  Actual Average Record
Temperature  
Mean Temperature 48 °F -  
Max Temperature 57 °F 54 °F 73 °F (1996)
Min Temperature 39 °F 41 °F 39 °F (2008)
Degree Days  
Heating Degree Days 17    
Moisture  
Dew Point 42 °F    
Average Humidity 82    
Maximum Humidity 100    
Minimum Humidity 50    
Precipitation  
Precipitation 0.00 in 0.29 in - ()
Sea Level Pressure  
Sea Level Pressure 30.08 in    
Wind  
Wind Speed 7 mph ()    
Max Wind Speed 12 mph    
Max Gust Speed -    
Visibility 9.0 miles    
Events Rain    
Averages and records for this station are not official NWS values.
T = Trace of Precipitation, MM = Missing Value Source: Averaged Metar Reports

Daily Weather History Graph

Daily Weather History Graph

Search for Another Location

Airport or City:

Trip Planner

Search our weather history database for the weather conditions in past years. The results will help you decide how hot, cold, wet, or windy it might be!

Date:

Astronomy

Oct. 09, 2013 Rise Set
Actual Time 7:18 AM PDT 6:27 PM PDT
Civil Twilight 6:46 AM PDT 6:58 PM PDT
Nautical Twilight 6:09 AM PDT 7:35 PM PDT
Astronomical Twilight 5:32 AM PDT 8:12 PM PDT
Moon 12:40 PM PDT (10/9) 9:45 PM PDT (10/9)
Length of Visible Light 12h 12m
Length of Day
11h 08m
Waxing Crescent, 26% of the Moon is Illuminated
Oct 9
Waxing Crescent
Oct 11
First Quarter
Oct 18
Full
Oct 26
Last Quarter
Nov 3
New

Hourly Weather History & Observations

Time (PDT) Temp. Windchill Dew Point Humidity Pressure Visibility Wind Dir Wind Speed Gust Speed Precip Events Conditions
12:00 AM 42.8 °F 37.5 °F 42.8 °F 100% 30.16 in 9.0 mi East 9.2 mph - N/A   Clear
1:00 AM 42.8 °F 37.5 °F 41.0 °F 93% 30.17 in 9.0 mi East 9.2 mph - N/A   Clear
2:00 AM 42 °F - 41 °F 94% 30.19 in - East 6.9 mph - -  
2:00 AM 41.0 °F 34.7 °F 41.0 °F 100% 30.19 in 9.0 mi East 10.4 mph - N/A   Clear
3:00 AM 41.0 °F 35.8 °F 41.0 °F 100% 30.18 in 9.0 mi East 8.1 mph - N/A   Clear
4:00 AM 39.2 °F 32.5 °F 39.2 °F 100% 30.19 in 9.0 mi ESE 10.4 mph - N/A   Clear
5:00 AM 41 °F - 40 °F 93% 30.19 in - East 10.4 mph - -  
5:00 AM 41.0 °F 34.3 °F 39.2 °F 93% 30.19 in 9.0 mi East 11.5 mph - N/A   Clear
6:00 AM 41.0 °F 35.2 °F 39.2 °F 93% 30.20 in 9.0 mi East 9.2 mph - N/A   Clear
7:00 AM 41.0 °F 36.4 °F 39.2 °F 93% 30.19 in 9.0 mi East 6.9 mph - N/A   Partly Cloudy
8:00 AM 40 °F - 38 °F 92% 30.18 in - East 6.9 mph - -  
8:00 AM 41.0 °F 35.8 °F 39.2 °F 93% 30.19 in 9.0 mi East 8.1 mph - N/A   Clear
9:00 AM 41.0 °F 34.7 °F 39.2 °F 93% 30.17 in 9.0 mi ESE 10.4 mph - N/A   Clear
10:00 AM 46.4 °F 41.9 °F 41.0 °F 81% 30.16 in 9.0 mi ESE 9.2 mph - N/A   Clear
11:00 AM 48 °F - 42 °F 72% 30.12 in - East 8.1 mph - -  
11:00 AM 48.2 °F - 41.0 °F 76% 30.13 in 9.0 mi East 8.1 mph - N/A   Mostly Cloudy
12:00 PM 50.0 °F - 41.0 °F 71% 30.09 in 9.0 mi ESE 8.1 mph - N/A   Mostly Cloudy
1:00 PM 53.6 °F - 42.8 °F 67% 30.06 in 9.0 mi SSW 3.5 mph - N/A   Mostly Cloudy
2:00 PM 54 °F - 41 °F 50% 30.03 in - West 6.9 mph - -  
2:00 PM 53.6 °F - 41.0 °F 62% 30.04 in 9.0 mi WNW 5.8 mph - N/A   Mostly Cloudy
3:00 PM 55.4 °F - 41.0 °F 58% 30.03 in 9.0 mi WNW 6.9 mph - N/A   Scattered Clouds
4:00 PM 57.2 °F - 42.8 °F 59% 30.00 in 9.0 mi West 9.2 mph - N/A   Scattered Clouds
5:00 PM 54 °F - 42 °F 53% 29.99 in - WSW 5.8 mph - -  
5:00 PM 53.6 °F - 41.0 °F 62% 29.99 in 9.0 mi West 4.6 mph - N/A   Clear
6:00 PM 51.8 °F - 42.8 °F 71% 29.99 in 9.0 mi SW 6.9 mph - N/A   Scattered Clouds
7:00 PM 50.0 °F - 42.8 °F 76% 29.98 in 9.0 mi SW 5.8 mph - N/A   Overcast
8:00 PM 49 °F - 44 °F 76% 29.98 in - SSW 1.2 mph - -  
8:00 PM 50.0 °F - 44.6 °F 82% 29.98 in 9.0 mi Calm Calm - N/A   Overcast
9:00 PM 48.2 °F - 44.6 °F 87% 29.98 in 9.0 mi SE 4.6 mph - N/A   Overcast
10:00 PM 48.2 °F - 44.6 °F 87% 29.99 in 9.0 mi Calm Calm - N/A   Overcast
10:07 PM 48.2 °F - 44.6 °F 87% 29.99 in 9.0 mi Calm Calm - N/A Rain Light Rain
10:49 PM 46.4 °F 45.2 °F 44.6 °F 93% 29.97 in 9.0 mi SE 3.5 mph - N/A   Overcast
11:00 PM 47 °F - 45 °F 91% 29.96 in - ESE 1.2 mph - -  
11:00 PM 46.4 °F - 44.6 °F 93% 29.97 in 9.0 mi Variable 2.3 mph - N/A   Overcast